TimeCDT,TemperatureF,Dew PointF,Humidity,Sea Level PressureIn,VisibilityMPH,Wind Direction,Wind SpeedMPH,Gust SpeedMPH,PrecipitationIn,Events,Conditions,WindDirDegrees,DateUTC
12:05 AM,69.8,66.2,88,30.06,10.0,SSE,4.6,-,N/A,,Clear,160,2013-06-18 05:05:00
12:25 AM,68.0,64.4,88,30.06,10.0,South,4.6,-,N/A,,Clear,180,2013-06-18 05:25:00
12:45 AM,66.2,64.4,94,30.06,10.0,SSW,3.5,-,N/A,,Clear,200,2013-06-18 05:45:00
1:05 AM,68.0,66.2,94,30.06,10.0,South,3.5,-,N/A,,Clear,190,2013-06-18 06:05:00
1:25 AM,68.0,66.2,94,30.05,10.0,SSW,3.5,-,N/A,,Clear,200,2013-06-18 06:25:00
1:45 AM,68.0,66.2,94,30.04,10.0,South,3.5,-,N/A,,Clear,170,2013-06-18 06:45:00
2:05 AM,68.0,66.2,94,30.03,10.0,South,3.5,-,N/A,,Clear,170,2013-06-18 07:05:00
2:25 AM,66.2,66.2,100,30.04,10.0,South,4.6,-,N/A,,Clear,170,2013-06-18 07:25:00
2:45 AM,66.2,66.2,100,30.04,10.0,South,3.5,-,N/A,,Clear,180,2013-06-18 07:45:00
3:05 AM,66.2,66.2,100,30.03,10.0,Calm,Calm,-,N/A,,Clear,0,2013-06-18 08:05:00
3:25 AM,66.2,66.2,100,30.03,10.0,Calm,Calm,-,N/A,,Clear,0,2013-06-18 08:25:00
3:45 AM,66.2,66.2,100,30.02,8.0,South,3.5,-,N/A,,Clear,190,2013-06-18 08:45:00
4:05 AM,64.4,64.4,100,30.02,4.0,South,3.5,-,N/A,,Clear,170,2013-06-18 09:05:00
4:25 AM,64.4,64.4,100,30.04,5.0,Calm,Calm,-,N/A,,Clear,0,2013-06-18 09:25:00
4:45 AM,64.4,64.4,100,30.04,5.0,NNW,3.5,-,N/A,,Clear,330,2013-06-18 09:45:00
5:05 AM,64.4,64.4,100,30.04,5.0,NNW,3.5,-,N/A,,Clear,330,2013-06-18 10:05:00
5:25 AM,64.4,64.4,100,30.05,5.0,Calm,Calm,-,N/A,,Clear,0,2013-06-18 10:25:00
5:45 AM,64.4,64.4,100,30.06,4.0,Calm,Calm,-,N/A,,Clear,0,2013-06-18 10:45:00
6:05 AM,64.4,64.4,100,30.05,3.0,Calm,Calm,-,N/A,,Clear,0,2013-06-18 11:05:00
6:25 AM,62.6,62.6,100,30.05,0.5,WSW,5.8,-,N/A,Fog,Fog,250,2013-06-18 11:25:00
6:45 AM,64.4,64.4,100,30.05,2.5,WNW,5.8,-,N/A,,Clear,290,2013-06-18 11:45:00
7:05 AM,64.4,64.4,100,30.06,3.0,WNW,4.6,-,N/A,,Clear,290,2013-06-18 12:05:00
7:25 AM,66.2,66.2,100,30.06,4.0,NW,3.5,-,N/A,,Clear,310,2013-06-18 12:25:00
7:45 AM,68.0,68.0,100,30.06,7.0,NNW,4.6,-,N/A,,Clear,330,2013-06-18 12:45:00
8:05 AM,69.8,68.0,94,30.06,8.0,NW,4.6,-,N/A,,Clear,310,2013-06-18 13:05:00
8:25 AM,71.6,68.0,88,30.07,9.0,Calm,Calm,-,N/A,,Clear,0,2013-06-18 13:25:00
8:45 AM,73.4,68.0,83,30.08,10.0,Calm,Calm,-,N/A,,Clear,0,2013-06-18 13:45:00
9:05 AM,75.2,66.2,73,30.09,10.0,SSW,4.6,-,N/A,,Clear,210,2013-06-18 14:05:00
9:25 AM,77.0,64.4,65,30.08,10.0,SW,3.5,-,N/A,,Clear,220,2013-06-18 14:25:00
9:45 AM,77.0,64.4,65,30.08,10.0,Calm,Calm,-,N/A,,Clear,0,2013-06-18 14:45:00
10:05 AM,78.8,62.6,57,30.08,10.0,SE,4.6,-,N/A,,Clear,140,2013-06-18 15:05:00
10:25 AM,78.8,59.0,51,30.08,10.0,Calm,Calm,-,N/A,,Clear,0,2013-06-18 15:25:00
10:45 AM,80.6,59.0,48,30.07,10.0,SE,4.6,-,N/A,,Clear,140,2013-06-18 15:45:00
11:05 AM,80.6,59.0,48,30.07,10.0,Calm,Calm,-,N/A,,Clear,0,2013-06-18 16:05:00
11:25 AM,82.4,59.0,45,30.07,10.0,NE,6.9,-,N/A,,Clear,40,2013-06-18 16:25:00
11:45 AM,82.4,59.0,45,30.07,10.0,NNE,3.5,-,N/A,,Clear,30,2013-06-18 16:45:00
12:05 PM,84.2,59.0,42,30.06,10.0,NNE,4.6,-,N/A,,Clear,20,2013-06-18 17:05:00
12:25 PM,84.2,60.8,45,30.06,10.0,ENE,5.8,-,N/A,,Clear,60,2013-06-18 17:25:00
12:45 PM,84.2,60.8,45,30.05,10.0,East,6.9,-,N/A,,Clear,80,2013-06-18 17:45:00
1:05 PM,86.0,60.8,43,30.04,10.0,Calm,Calm,-,N/A,,Clear,0,2013-06-18 18:05:00
1:25 PM,86.0,59.0,40,30.04,10.0,NE,5.8,-,N/A,,Partly Cloudy,40,2013-06-18 18:25:00
1:45 PM,86.0,60.8,43,30.03,10.0,SSE,5.8,-,N/A,,Partly Cloudy,150,2013-06-18 18:45:00
2:05 PM,86.0,59.0,40,30.02,10.0,SSE,6.9,-,N/A,,Scattered Clouds,160,2013-06-18 19:05:00
2:25 PM,86.0,59.0,40,30.02,3.0,SSE,6.9,-,N/A,,Haze,150,2013-06-18 19:25:00
2:45 PM,86.0,59.0,40,30.01,8.0,ESE,4.6,-,N/A,,Mostly Cloudy,110,2013-06-18 19:45:00
3:05 PM,87.8,59.0,38,30.00,5.0,South,11.5,-,N/A,,Haze,190,2013-06-18 20:05:00
3:25 PM,87.8,59.0,38,30.00,3.0,South,6.9,-,N/A,,Haze,180,2013-06-18 20:25:00
3:45 PM,89.6,59.0,36,29.99,3.0,South,12.7,16.1,N/A,,Haze,170,2013-06-18 20:45:00
4:05 PM,89.6,59.0,36,29.98,1.5,SW,9.2,18.4,N/A,,Haze,220,2013-06-18 21:05:00
4:25 PM,89.6,59.0,36,29.97,3.0,South,8.1,17.3,N/A,,Haze,170,2013-06-18 21:25:00
4:45 PM,89.6,57.2,33,29.97,1.8,SSW,10.4,18.4,N/A,,Haze,210,2013-06-18 21:45:00
5:05 PM,89.6,57.2,33,29.96,4.0,South,9.2,-,N/A,,Haze,170,2013-06-18 22:05:00
5:25 PM,89.6,55.4,31,29.95,3.0,SSW,11.5,17.3,N/A,,Haze,210,2013-06-18 22:25:00
5:45 PM,87.8,57.2,35,29.95,6.0,South,11.5,18.4,N/A,,Haze,180,2013-06-18 22:45:00
6:05 PM,89.6,57.2,33,29.94,2.5,SSE,12.7,18.4,N/A,,Haze,160,2013-06-18 23:05:00
6:25 PM,87.8,55.4,33,29.93,10.0,South,9.2,17.3,N/A,,Clear,190,2013-06-18 23:25:00
6:45 PM,86.0,57.2,37,29.93,10.0,South,10.4,17.3,N/A,,Clear,170,2013-06-18 23:45:00
7:05 PM,86.0,57.2,37,29.93,10.0,South,10.4,-,N/A,,Clear,190,2013-06-19 00:05:00
7:25 PM,86.0,59.0,40,29.94,10.0,South,10.4,-,N/A,,Clear,170,2013-06-19 00:25:00
7:45 PM,86.0,59.0,40,29.95,10.0,South,6.9,-,N/A,,Clear,180,2013-06-19 00:45:00
8:05 PM,84.2,57.2,40,29.95,10.0,South,6.9,-,N/A,,Clear,180,2013-06-19 01:05:00
8:25 PM,80.6,59.0,48,29.96,10.0,South,6.9,-,N/A,,Clear,180,2013-06-19 01:25:00
8:45 PM,78.8,60.8,54,29.97,6.0,SSE,8.1,-,N/A,,Haze,160,2013-06-19 01:45:00
9:05 PM,77.0,62.6,61,29.98,10.0,SSE,9.2,-,N/A,,Clear,160,2013-06-19 02:05:00
9:25 PM,77.0,62.6,61,29.97,10.0,SSE,9.2,-,N/A,,Clear,160,2013-06-19 02:25:00
9:45 PM,77.0,62.6,61,29.97,10.0,SSE,9.2,-,N/A,,Clear,150,2013-06-19 02:45:00
10:05 PM,77.0,62.6,61,29.98,10.0,SSE,11.5,18.4,N/A,,Clear,160,2013-06-19 03:05:00
10:25 PM,77.0,62.6,61,29.98,10.0,SSE,11.5,-,N/A,,Clear,160,2013-06-19 03:25:00
10:45 PM,75.2,62.6,65,29.98,10.0,SSE,12.7,-,N/A,,Clear,160,2013-06-19 03:45:00
11:05 PM,75.2,64.4,69,29.97,10.0,South,12.7,-,N/A,,Clear,170,2013-06-19 04:05:00
11:45 PM,75.2,64.4,69,29.99,10.0,SSE,11.5,-,N/A,,Clear,160,2013-06-19 04:45:00